Easy to use

vPilot, FSInn, and Squawkbox

VATSIM has 3 different client software available to choose by the user. The 3 different softwares are relatively easy to use and enjoyable to the user's experience. The software's operating manual is available to download in case user has not been able to fully operate the software to get a real working pilot experience.

Radar that functions similarly to real ATC's radar

EuroScope & VRC

VATSIM uses an advanced radar client simulating real ATC experience in the real world. Although it said to be advanced, both radar clients are very easy to use. Another interesting point is VATSIM has the technology to break the limit between simulation and real life experience.

With VATSIM, you can learn more about aviation.
You can also discuss with other aviation geek.

Unforgettable Experience

Current Activity

No controllers currently online!

Pilot

Callsign Name Route
GIA623Theo Mourabas LGAV (1150756)WADD-OERK
MAS376Pham Quoc Nam VVTS (1171793)WMKK-WIII

*This information may not be up to date.

METAR

Airport Name - Location (ICAO) METAR
Sultan Hasanuddin - Makassar (WAAA)METAR WAAA 160200Z VRB03KT 9999 FEW020 33/16 Q1011|NOSIG=
I Gusti Ngurah Rai - Denpasar (WADD)METAR WADD 160200Z 10007KT 050V140 9999 FEW017 29/24 Q1013|NOSIG=
Ahmad Yani - Semarang (WAHS)METAR WAHS 160200Z 09007KT 360V140 7000 FEW014 32/19 Q1011=
Juanda - Surabaya (WARR)METAR WARR 160200Z 09007KT 050V140 9999 FEW020 30/20 Q1011|NOSIG=
Soekarno Hatta - Jakarta (WIII)METAR WIII 160200Z VRB04KT 8000 FEW020 31/21 Q1012|NOSIG=
Halim Perdana Kusuma - Jakarta (WIHH)METAR WIHH 160100Z 18003KT 4000 HZ NSC 28/23 Q1012|NOSIG=
Kualanamu International Airport - Deli Serdang (WIMM)METAR WIMM 160200Z 20003KT 2000 BR SCT017 25/24 Q1011|NOSIG=

*METAR resource from BMKG. This information may not be up to date.

VATSIM Indonesia vACC VATSIM South East Asia VATSIM Asia